Thursday, September 20, 2018, 10:09 PM EDT
Back to Local

KSNC, Chester, Chester Airport

Location: Chester, CT, United States Lat: 41.384
Local Time: 10:09 PM EDT ( 2:09 GMT) Lon: -72.506
Time Zone: US/Eastern Elev: 416 ft

Show me the last for .
Show Coded

Time T Td Feel RH Dir Speed Gust Alt SLP Vis Weather Sky Remarks
2018-09-20 21:55 63 59 - 88 80° 3 - 30.29 - 10 OVC050 None
2018-09-20 21:35 63 59 - 88 90° 5 - 30.29 - 10 OVC049 None
2018-09-20 21:15 63 59 - 88 Variable 3 - 30.29 - 10 OVC049 None
2018-09-20 20:55 63 61 - 93 - Calm - 30.28 - 10 OVC048 None
2018-09-20 20:35 64 61 - 88 - Calm - 30.28 - 10 OVC049 None
2018-09-20 20:15 64 61 - 88 140° 3 - 30.26 - 10 FEW019 FEW024 OVC049 None
2018-09-20 19:55 64 61 - 88 130° 5 - 30.27 - 10 FEW019 SCT024 OVC048 None
2018-09-20 19:35 64 61 - 88 130° 5 - 30.26 - 10 FEW034 OVC047 None
2018-09-20 19:15 64 61 - 88 140° 5 - 30.26 - 10 FEW034 OVC047 None
2018-09-20 18:55 64 61 - 88 140° 3 - 30.25 - 10 OVC046 None
2018-09-20 18:35 66 61 - 82 140° 5 - 30.26 - 10 FEW037 OVC046 None
2018-09-20 18:15 66 61 - 82 140° 5 - 30.25 - 10 SCT025 BKN037 OVC043 None
2018-09-20 17:55 68 61 - 77 170° 5 - 30.24 - 10 FEW023 SCT034 OVC043 None
2018-09-20 17:35 68 61 - 77 160° 7 - 30.23 - 10 FEW022 SCT027 BKN034 None
2018-09-20 17:15 68 59 - 72 200° 5 - 30.23 - 10 OVC039 None
2018-09-20 16:55 70 55 - 60 - Calm - 30.23 - 10 BKN042 BKN049 None
2018-09-20 16:35 70 55 - 60 110° 3 - 30.22 - 10 BKN046 None
2018-09-20 16:15 72 55 76 56 70° 6 - 30.22 - 10 OVC047 None
2018-09-20 15:55 72 55 76 56 Variable 3 - 30.23 - 10 FEW037 OVC046 None
2018-09-20 15:35 73 55 77 53 Variable 5 - 30.22 - 10 BKN039 OVC048 None
2018-09-20 15:15 75 54 77 47 - Calm - 30.22 - 10 BKN048 None
2018-09-20 14:55 72 55 76 56 - Calm - 30.22 - 10 FEW037 BKN045 None
2018-09-20 14:35 73 55 77 53 40° 5 - 30.23 - 10 BKN036 BKN045 None
2018-09-20 14:15 73 55 77 53 30° 6 - 30.23 - 10 SCT035 BKN046 None
2018-09-20 13:55 72 55 76 56 - Calm - 30.24 - 10 SCT032 SCT041 BKN046 None
2018-09-20 13:35 72 55 76 56 70° 5 - 30.23 - 10 SCT032 SCT040 SCT110 None
2018-09-20 13:15 72 55 76 56 50° 7 - 30.24 - 10 SCT032 BKN039 None
2018-09-20 12:55 70 55 - 60 70° 6 - 30.25 - 9 SCT031 SCT041 SCT110 None
2018-09-20 12:35 72 55 76 56 - Calm - 30.24 - 10 SCT029 SCT049 None
2018-09-20 12:15 70 55 - 60 20° 8 - 30.25 - 10 FEW026 BKN049 None
2018-09-20 11:55 70 55 - 60 Variable 7 14 30.25 - 10 BKN049 None
2018-09-20 11:35 70 55 - 60 50° 7 - 30.25 - 10 BKN049 None
2018-09-20 11:15 70 57 - 64 Variable 5 - 30.26 - 10 FEW034 BKN049 None
2018-09-20 10:55 68 55 - 64 50° 8 - 30.25 - 10 FEW049 None
2018-09-20 10:35 66 55 - 68 40° 8 - 30.25 - 10 FEW049 None
2018-09-20 10:15 66 55 - 68 20° 8 - 30.24 - 8 CLR None
2018-09-20 09:55 66 55 - 68 60° 9 - 30.22 - 10 CLR None
2018-09-20 09:35 66 55 - 68 40° 8 - 30.22 - 10 CLR None
2018-09-20 09:15 66 55 - 68 40° 7 - 30.23 - 10 SCT049 None
2018-09-20 08:55 64 55 - 72 20° 9 - 30.21 - 10 BKN049 None
2018-09-20 08:35 63 55 - 77 40° 10 - 30.21 - 10 BKN049 None
2018-09-20 08:15 64 55 - 72 40° 10 - 30.20 - 10 BKN050 None
2018-09-20 07:55 63 55 - 77 30° 10 - 30.19 - 10 BKN050 None
2018-09-20 07:35 63 55 - 77 30° 7 - 30.18 - 10 OVC050 None
2018-09-20 07:15 61 55 - 82 40° 6 - 30.18 - 10 OVC050 None
2018-09-20 06:55 59 55 - 87 30° 6 - 30.17 - 10 OVC050 None
2018-09-20 06:35 59 55 - 87 30° 6 - 30.16 - 10 BKN050 None
2018-09-20 06:15 57 55 - 93 20° 5 - 30.16 - 10 FEW036 SCT050 None
2018-09-20 05:55 57 55 - 93 20° 3 - 30.16 - 10 BKN036 None
2018-09-20 05:35 57 55 - 93 360° 5 - 30.14 - 10 FEW035 SCT050 None
2018-09-20 05:15 57 55 - 93 350° 6 - 30.14 - 10 FEW050 None
2018-09-20 04:55 57 55 - 93 30° 6 - 30.12 - 10 SCT055 None
2018-09-20 04:35 59 55 - 87 40° 5 - 30.12 - 10 BKN055 None
2018-09-20 04:15 59 55 - 87 30° 6 - 30.12 - 10 OVC055 None
2018-09-20 03:55 59 55 - 87 20° 6 - 30.12 - 10 OVC055 None
2018-09-20 03:35 59 55 - 87 20° 5 - 30.12 - 10 BKN055 None
2018-09-20 03:15 57 55 - 93 10° 6 - 30.12 - 10 CLR None
2018-09-20 02:55 57 55 - 93 360° 5 - 30.12 - 10 CLR None
2018-09-20 02:35 57 55 - 93 30° 5 - 30.11 - 10 CLR None
2018-09-20 02:15 59 55 - 87 30° 5 - 30.11 - 10 FEW035 None
2018-09-20 01:55 59 55 - 87 - Calm - 30.11 - 10 CLR None
2018-09-20 01:35 59 55 - 87 50° 6 - 30.11 - 10 CLR None
2018-09-20 01:15 59 55 - 87 50° 6 - 30.11 - 10 CLR None
2018-09-20 00:55 59 55 - 87 30° 5 - 30.11 - 10 CLR None
2018-09-20 00:35 59 55 - 87 40° 6 - 30.10 - 10 CLR None
2018-09-20 00:15 59 57 - 93 40° 7 - 30.11 - 10 FEW036 SCT050 None
2018-09-19 23:55 61 57 - 87 50° 5 - 30.10 - 10 OVC035 None
2018-09-19 23:35 61 57 - 87 30° 6 - 30.10 - 10 FEW017 BKN031 BKN038 None
2018-09-19 23:15 61 57 - 87 50° 6 - 30.09 - 10 BKN031 BKN037 OVC050 None
2018-09-19 22:55 63 57 - 82 40° 5 - 30.09 - 10 BKN031 OVC050 None
2018-09-19 22:35 63 57 - 82 50° 6 - 30.09 - 10 FEW013 OVC030 None
2018-09-19 22:15 63 57 - 82 40° 8 - 30.08 - 10 FEW013 OVC029 None

Support USWX by starting your Amazon purchase here.